Temp_Advection
nan nan nan nan nan nan nan nan nan nan nan nan nan nan nan nan nan nan nan nan nan nan nan nan nan nan nan nan nan nan nan nan nan nan nan nan nan nan nan nan nan nan nan nan nan nan nan
nan -0 -0 -0 -0 -0 -0 -0 -0 -0 -0 -0 -1 -0 -0 -0 -0 -0 -0 -0 0 0 0 0 0 0 -0 -2 -1 0 0 1 1 1 -0 -0 -0 -0 -0 0 0 0 1 0 0 1 nan
nan -0 -0 -0 -0 -0 -0 -0 -0 -0 -1 -0 -0 -0 -1 -0 -1 -1 -0 -0 0 0 0 0 1 1 -0 -3 -0 0 0 1 1 1 0 -0 0 0 -0 0 1 1 -0 -0 -0 -0 nan
nan -0 -0 -0 -0 -0 -1 -0 -0 -0 -0 -1 -1 -1 -1 -1 -1 -1 -1 -1 -0 -0 0 0 1 0 -1 -0 0 0 0 0 1 0 0 0 0 -1 -1 0 0 -0 -0 -1 -1 0 nan
nan -0 -0 -0 -0 -1 -1 -1 -1 -1 -1 -0 -0 -0 -0 -1 -1 -1 -1 0 -0 -0 -0 -0 0 -0 -1 0 0 0 0 0 0 0 0 0 -0 -0 0 -0 -1 -0 -0 -1 -0 0 nan
nan -0 -0 -1 -1 -1 -1 -1 -1 -1 -2 -2 -1 -1 -0 -0 -0 -2 -1 -1 -0 0 -0 0 -0 -1 -0 0 0 0 0 0 -0 -0 -0 -0 -0 -0 -0 -0 -1 -1 -1 -0 -0 -0 nan
nan -1 -1 -1 -1 -1 -1 -1 -1 -1 -1 -2 -2 -2 -1 -0 -0 -1 -3 -2 -2 0 -0 -0 -0 0 0 -0 0 -0 -0 -0 -0 -0 -1 -1 0 -1 -2 -1 -1 -0 -0 -1 -0 1 nan
nan -0 -1 -1 -1 -1 -1 -1 -1 -1 -1 -1 -1 -2 -2 -1 -0 -1 -2 -1 -1 -1 -1 -2 -1 -0 0 -0 -0 -0 -0 -0 -1 -1 -1 -0 -1 -2 -1 0 1 1 0 -1 -1 0 nan
nan -1 -1 -1 -1 -1 -1 -1 -1 -1 -1 -1 -1 -1 -2 -2 -0 -0 -0 -0 0 -0 -1 -0 -0 -0 0 -0 -1 0 -0 -1 -0 -0 -0 -1 -1 0 0 0 1 0 -0 -0 -1 0 nan
nan -1 -1 -1 -0 -0 -0 -1 -1 -1 -1 -1 -1 -0 -1 -2 -0 -1 0 1 1 -0 -1 -0 -0 -0 -0 -0 -0 0 0 -0 0 -0 -0 -0 -0 1 1 0 0 -0 -1 0 1 1 nan
nan -1 -0 -1 -1 -0 -0 -0 -0 -0 -0 -1 -1 -1 -1 -1 -0 -1 -0 0 0 0 -1 -0 -0 -0 -0 -0 0 0 0 0 -0 0 0 0 1 0 -0 -1 0 0 -0 0 1 0 nan
nan -1 -0 -0 -1 -1 -1 -0 -0 -0 -0 -0 -1 -1 -0 -1 -0 -0 -0 -0 0 -1 -1 -0 -0 -0 -0 -0 -0 -0 -0 0 -0 -0 -0 -0 0 -0 -1 0 0 0 0 0 0 0 nan
nan -0 -1 -0 -0 -0 -0 -0 -0 -0 -0 -0 -0 -1 -1 -1 -0 -1 -0 -0 -1 -1 0 -0 0 -0 -0 -0 -0 -0 -0 -0 -0 -0 -1 -0 0 -0 0 0 -0 0 -0 0 0 -0 nan
nan -0 -0 -0 -0 -1 -0 -1 -0 -0 -0 -0 -0 -0 -0 -1 -0 -0 -0 -1 -1 -1 0 -1 -0 -0 -1 -0 0 0 0 -1 -1 -0 0 -0 -0 0 0 -0 -0 -0 0 -0 -0 -1 nan
nan -1 -0 -0 -0 -0 -0 -0 -0 -0 -0 -0 -1 -1 0 0 0 -0 -0 -1 -0 -1 -1 -1 -1 -1 -0 0 0 -0 -0 -1 -1 1 0 -0 1 -0 0 0 0 0 -0 -0 -0 -0 nan
nan -0 -0 -0 -0 0 -0 -0 -0 -0 -0 -0 -1 -1 -0 0 0 -0 -0 -0 -0 -0 -0 -0 -1 -1 -1 -1 0 -0 -0 -0 0 -0 0 1 -1 -0 1 0 -0 -0 0 1 0 0 nan
nan -0 -0 -0 -0 0 0 0 -0 -0 -0 -0 -0 -0 -0 -0 -0 0 -0 -1 -1 0 -0 -0 -0 -1 -1 -1 -1 -1 -1 -1 0 -0 -0 -0 0 0 0 -0 0 1 0 -1 -0 0 nan
nan 0 -0 0 0 0 0 0 0 -0 -0 -0 -0 -0 -0 -1 -0 -0 -0 0 -0 -1 -0 -0 -0 0 -0 -0 -1 -2 -2 -1 -2 -1 -1 -0 -0 -1 -1 0 -0 -0 -1 0 1 1 nan
nan 0 0 0 0 0 0 -0 -0 -0 -0 -0 -0 -0 0 0 -0 -1 -1 -0 0 -0 -0 0 -0 -1 0 1 -0 -1 -1 -1 -1 -1 -0 -1 -1 -1 -1 -0 1 1 -0 0 1 0 nan
nan 0 0 0 0 -0 -0 0 0 0 0 -0 -0 -0 -0 0 -0 -0 -0 -1 -1 -1 -0 0 -1 -1 0 -0 1 0 -1 0 0 -0 0 0 0 -1 -1 -1 -1 -1 -1 -0 1 0 nan
nan 0 0 0 0 0 -0 0 0 0 0 -0 -0 -0 -0 -0 -0 -0 -0 0 -0 -1 -1 1 0 -1 0 -0 -1 -1 -0 -1 -0 -1 1 0 -0 -0 -0 -0 -0 -0 -2 -0 1 0 nan
nan 0 0 0 0 0 0 -0 -0 0 -0 -0 0 -0 -0 -1 -1 -0 0 -0 -0 -0 -0 -0 -0 -1 -0 0 0 -0 -1 -0 -1 -1 -0 0 -0 -0 -0 -0 0 0 0 -1 -1 -0 nan
nan 0 0 0 0 0 0 -0 -0 -0 -0 0 0 0 -0 -1 -0 -0 -0 0 -0 -0 -0 0 0 0 -1 -0 -0 0 -0 -0 0 -0 -0 -0 -0 -0 -0 -0 0 1 -0 -0 -1 -2 nan
nan -0 -0 -0 0 0 0 0 0 0 -0 0 0 0 -0 -1 -1 -0 -0 -0 -0 -0 0 0 0 -0 -0 0 0 0 0 0 -0 -1 -0 0 0 -0 -0 0 1 -1 -1 -2 -1 -1 nan
nan -0 -0 0 0 0 -0 -0 0 0 0 0 0 0 -0 -0 -0 -1 -1 -0 -0 -1 -0 0 1 0 -0 -0 -0 -0 0 0 -0 0 0 0 -0 -0 -0 0 -0 -0 -2 -1 -0 -0 nan
nan -0 -0 0 0 -0 -0 -0 -0 0 0 0 0 0 -0 -1 -0 -0 -0 -1 -0 -0 -1 -0 0 1 -0 -0 -0 -0 -0 -0 0 -0 -0 -0 -0 -0 -0 0 1 -2 -1 -1 -1 0 nan
nan 0 0 -0 0 0 -0 -0 0 0 0 0 0 0 0 -0 -0 -0 -0 -0 -1 -1 -1 -0 -0 -0 -0 -0 -0 -0 0 -0 -0 -0 -0 0 0 0 -0 2 -2 -1 -1 -2 0 -1 nan
nan 0 0 -0 -0 0 0 -0 -0 0 0 0 0 0 0 0 0 0 -0 -0 -1 -1 -1 -1 -0 0 -0 -0 -0 -0 0 -0 -0 -1 -1 -1 -1 -1 -1 -0 -0 -1 -0 -0 -1 -1 nan
nan nan nan nan nan nan nan nan nan nan nan nan nan nan nan nan nan nan nan nan nan nan nan nan nan nan nan nan nan nan nan nan nan nan nan nan nan nan nan nan nan nan nan nan nan nan nan
Wind_Speed
14 15 16 17 19 19 20 21 22 24 25 26 27 27 28 28 29 29 30 29 28 28 27 25 23 19 18 11 23 24 16 13 16 22 21 21 22 23 15 15 22 22 21 21 19 21 22
16 16 17 17 18 20 22 23 25 25 26 27 28 29 30 31 32 31 30 29 27 26 25 25 23 20 14 18 18 19 17 18 18 22 20 21 14 23 11 19 17 9 20 23 21 21 17
17 18 19 21 22 23 24 24 24 25 26 27 29 30 30 31 32 34 33 30 27 25 23 22 21 18 15 28 17 14 16 17 18 19 16 19 21 12 7 12 22 15 15 15 20 24 17
18 19 20 21 22 22 24 25 26 27 28 30 31 33 36 35 34 35 35 30 28 27 23 19 15 10 12 12 22 23 17 14 16 15 14 13 15 17 18 7 4 10 15 14 9 17 10
18 19 20 21 22 23 24 25 25 26 27 29 31 33 34 35 36 36 34 28 27 19 12 7 3 8 8 9 9 13 14 11 11 11 9 7 10 15 10 14 13 15 15 19 17 11 8
18 19 21 23 24 25 26 27 28 29 29 31 33 33 34 33 32 33 31 26 16 13 9 3 3 6 8 2 3 6 12 12 9 10 7 10 10 10 12 14 15 15 22 19 17 10 13
19 21 24 25 26 26 27 27 28 29 28 31 32 31 32 32 33 25 32 17 11 3 7 10 12 15 6 3 3 5 10 13 10 14 12 17 10 16 24 22 23 23 23 21 14 12 10
20 22 24 25 25 25 26 26 27 27 28 31 32 34 32 30 26 25 20 8 6 11 15 21 24 23 25 16 6 8 10 13 12 14 15 10 19 21 19 19 19 21 25 24 20 18 15
23 24 25 25 24 24 25 27 27 28 29 31 32 35 35 32 17 21 13 15 13 10 8 8 5 4 3 10 9 18 16 12 15 17 20 22 16 3 16 21 25 23 25 22 23 17 12
23 23 23 23 23 23 25 27 29 30 32 32 34 34 34 33 8 23 7 19 16 8 6 4 4 3 3 3 5 7 12 13 11 15 18 17 22 24 24 19 19 21 20 20 19 12 15
23 23 22 23 25 24 24 25 28 30 30 33 34 33 32 27 21 15 17 17 13 5 7 4 5 5 4 6 1 7 9 11 12 11 6 7 10 8 16 25 18 17 7 12 14 14 15
22 22 23 24 25 24 23 25 28 29 29 33 34 30 30 26 18 14 18 13 6 5 9 3 3 3 5 10 7 5 8 8 3 12 18 22 9 5 14 8 10 1 6 5 7 10 10
21 22 24 24 23 24 24 23 25 28 30 31 32 31 29 29 12 17 12 5 5 6 1 2 2 2 4 5 7 10 12 11 9 6 13 16 24 20 15 12 7 13 10 5 9 8 10
22 21 24 23 23 25 23 25 25 25 28 29 32 33 29 18 11 9 8 5 9 9 11 6 5 12 9 7 9 12 8 17 20 19 13 10 13 19 19 21 14 22 19 10 12 14 15
21 22 21 22 24 25 23 24 25 26 29 32 32 29 20 9 12 8 6 7 6 12 8 14 18 12 15 4 5 6 15 19 18 20 13 10 17 5 9 13 15 16 19 24 23 23 14
20 21 21 22 22 23 25 24 24 27 28 29 26 20 10 7 9 6 5 12 12 10 13 11 11 13 21 19 14 10 11 6 8 13 14 15 20 18 10 6 13 16 5 10 11 14 22
21 21 21 22 22 23 25 24 25 26 27 28 17 12 5 7 15 10 3 9 15 13 16 10 17 23 23 23 21 21 18 15 10 9 10 13 15 18 5 11 16 10 11 12 11 15 13
20 20 20 22 24 21 22 24 25 25 26 22 12 3 13 19 6 5 6 11 8 15 23 22 21 21 22 22 18 22 26 21 15 13 13 14 7 16 22 6 5 9 10 20 13 20 12
20 20 21 21 20 21 20 22 22 24 25 23 13 11 7 1 4 9 13 15 15 18 19 9 12 20 18 17 12 12 12 22 15 11 7 10 8 15 20 16 14 10 14 12 7 2 7
20 20 18 17 18 20 21 20 21 21 22 20 7 4 4 5 10 14 16 13 18 23 18 18 20 21 19 17 17 8 22 10 10 18 14 11 4 13 10 14 12 9 21 22 17 6 12
18 17 18 18 19 20 20 19 17 20 19 15 4 3 8 7 14 12 18 18 22 23 27 24 7 12 20 17 19 19 16 21 21 30 13 4 8 10 11 12 11 10 17 16 16 16 11
17 16 16 17 18 18 18 17 15 18 17 5 3 4 7 17 13 17 15 15 19 18 19 19 16 18 21 16 18 20 18 14 11 11 11 4 9 8 12 11 10 9 10 14 10 11 8
16 16 17 17 16 16 16 15 16 15 13 5 6 8 6 10 12 13 12 18 23 21 17 19 16 13 16 19 20 20 22 25 17 15 17 5 2 3 6 9 9 9 7 7 4 11 6
17 18 18 18 18 18 18 16 15 13 11 10 8 9 4 8 10 13 21 23 19 22 19 23 20 14 17 28 27 23 23 23 17 19 16 10 5 3 6 6 10 6 11 12 16 12 11
17 18 19 20 19 18 17 17 16 14 12 13 12 7 5 7 15 19 17 19 28 25 15 15 23 14 14 10 7 10 7 4 7 11 11 7 3 3 4 7 1 3 9 8 7 8 12
17 19 19 19 19 19 18 17 16 15 13 12 12 10 8 6 4 25 19 22 13 9 12 15 12 14 6 3 5 5 5 7 1 3 4 2 3 5 6 7 6 6 17 19 12 3 12
19 19 19 20 20 20 19 18 17 16 15 14 13 11 9 10 11 11 6 7 9 9 8 15 9 10 4 3 6 5 6 1 3 3 2 2 3 10 10 8 5 16 19 17 4 5 14
20 20 20 21 23 23 20 19 20 19 17 14 18 13 11 7 17 10 13 5 10 7 6 13 10 1 3 4 4 5 3 1 1 4 5 5 6 4 5 5 2 31 7 6 8 12 12
20 20 21 20 21 24 20 20 20 20 15 11 15 12 13 12 10 14 4 6 7 6 8 7 8 15 5 4 4 4 3 4 5 2 9 2 5 3 6 4 8 15 17 15 14 12 15
Wind_Direction
354 352 349 348 346 342 340 339 336 334 332 330 327 326 325 324 321 318 316 313 309 302 296 289 286 285 290 255 250 267 257 227 202 193 192 192 195 202 219 230 230 226 245 252 252 258 250
352 349 346 342 341 341 340 337 333 334 336 334 331 329 326 325 321 317 315 313 310 301 294 289 284 283 263 249 256 253 244 223 212 201 204 207 217 221 267 248 228 222 247 254 248 252 242
350 348 346 345 343 341 338 337 338 338 336 332 330 327 325 325 323 320 320 320 314 306 296 286 280 272 244 246 260 249 233 226 216 211 214 218 225 215 231 253 243 254 262 259 246 242 238
353 351 348 347 345 342 340 340 339 338 337 336 335 333 331 331 331 327 324 327 317 309 299 288 273 230 249 252 247 248 235 220 219 213 216 226 221 232 244 259 241 237 237 256 246 226 217
353 351 349 346 343 341 340 339 339 339 338 338 336 336 337 338 335 332 328 333 321 318 316 300 232 206 258 263 248 239 211 214 209 206 209 213 199 220 208 233 250 230 256 237 254 200 186
351 348 344 342 345 345 345 344 344 342 342 341 341 341 337 341 337 336 338 341 328 331 343 334 219 236 240 273 217 212 199 196 189 185 182 199 209 219 220 220 227 234 237 237 258 205 218
347 345 345 347 347 346 347 347 346 347 346 345 345 343 341 345 341 345 348 1 355 256 313 263 274 260 270 314 255 202 184 183 186 196 208 198 216 218 230 231 248 267 280 278 244 221 219
343 343 343 344 344 346 349 349 349 350 347 348 348 347 343 345 346 350 3 41 23 308 298 285 267 261 254 268 270 202 175 193 202 218 216 201 235 244 248 257 256 261 260 265 268 271 258
342 342 342 343 345 348 348 348 348 346 347 348 347 348 345 342 347 355 357 3 345 328 274 286 234 242 224 197 231 242 206 223 235 243 236 234 245 226 247 254 255 248 256 261 263 267 238
341 342 341 342 342 341 341 342 344 345 345 345 345 349 346 341 0 343 338 335 334 327 285 177 175 158 163 211 239 210 215 208 215 243 245 256 262 253 249 252 248 256 253 256 259 258 251
340 340 340 340 339 340 340 339 336 337 340 340 341 345 345 346 327 334 323 331 329 323 302 117 157 166 178 216 341 189 188 208 239 215 226 230 230 227 230 240 245 257 328 252 240 248 260
341 340 340 339 338 338 338 337 335 336 334 336 337 345 345 343 320 303 325 324 326 247 248 154 155 206 225 201 202 162 188 207 250 256 245 254 252 251 238 251 247 139 209 204 222 228 239
340 338 334 335 335 336 335 331 329 332 335 335 332 340 342 334 304 307 318 322 262 229 101 131 285 298 274 245 223 205 196 197 208 212 226 237 240 230 228 237 204 198 203 220 218 205 244
334 338 336 340 338 339 336 330 328 332 332 329 326 332 337 331 333 335 331 248 246 275 286 30 327 301 257 293 240 230 252 239 224 245 270 264 262 208 204 220 205 206 210 217 237 234 244
334 334 334 334 337 339 335 331 334 329 328 327 328 333 331 352 5 356 300 243 287 10 357 337 316 265 280 218 266 260 246 256 251 221 225 245 246 130 196 213 223 228 217 237 261 271 277
336 334 340 340 339 338 336 337 338 335 337 335 334 330 315 336 355 337 259 250 295 352 331 310 288 294 287 291 288 263 271 320 262 268 260 267 268 248 193 218 242 242 258 206 215 236 239
337 340 341 337 338 338 340 340 338 339 340 342 345 335 325 312 328 290 248 274 305 308 321 313 308 303 294 293 291 282 277 286 285 299 276 270 258 263 184 212 232 206 233 236 262 230 250
339 338 339 339 346 356 350 347 344 342 341 348 339 310 308 304 297 254 278 320 327 299 303 297 293 289 291 302 296 289 283 281 352 321 301 284 296 256 250 252 345 301 274 245 238 240 242
339 340 337 340 346 344 345 344 347 348 345 344 331 298 359 37 302 311 295 302 299 291 292 297 302 302 306 307 307 299 342 337 343 358 337 5 276 268 261 258 223 233 251 249 254 177 241
345 345 345 349 341 338 338 338 345 343 340 350 337 308 301 318 303 294 301 305 301 300 295 289 305 302 296 292 292 292 304 300 272 281 288 272 239 296 292 301 318 289 250 243 226 250 258
353 356 352 346 341 339 340 340 338 341 340 351 354 335 326 305 319 331 317 301 296 290 305 296 286 278 290 299 307 298 308 314 306 295 282 272 276 295 300 335 330 294 290 241 224 233 239
357 350 345 343 344 343 347 348 342 339 345 357 341 328 335 297 290 304 312 309 305 304 315 293 274 290 288 293 291 294 307 299 307 328 312 225 275 285 292 305 296 292 294 312 298 265 240
1 2 5 2 359 1 356 351 346 345 348 327 304 318 298 297 308 311 306 314 307 313 314 274 290 302 302 291 310 295 290 280 262 265 273 273 273 271 269 266 282 264 307 304 53 41 345
5 6 4 2 360 355 348 344 338 336 336 323 309 308 264 286 302 305 312 304 311 314 305 302 290 285 287 309 303 288 268 257 257 256 253 248 253 250 283 277 255 55 36 66 86 50 41
3 3 2 0 355 349 344 341 338 334 330 320 305 284 265 289 305 301 321 313 305 299 294 302 299 299 307 322 299 296 286 254 247 236 238 229 255 272 252 276 128 102 28 11 359 54 24
358 359 355 350 346 344 342 342 343 341 330 310 295 286 273 292 266 317 307 304 300 319 316 326 313 301 301 268 266 267 295 301 239 108 64 122 276 254 281 284 287 30 333 331 313 126 21
350 344 342 341 338 337 331 330 328 323 317 310 289 289 264 261 284 329 322 322 310 316 293 309 346 299 213 264 278 254 279 334 316 352 351 181 220 232 258 259 93 347 314 309 220 27 12
345 341 337 336 335 334 328 327 327 320 301 292 289 289 262 270 291 292 314 328 333 347 314 328 318 142 278 264 285 324 299 42 59 47 7 25 331 24 315 298 141 355 17 37 345 26 16
346 345 344 341 342 347 345 339 335 335 327 291 287 291 279 267 275 294 294 342 349 334 308 309 293 293 325 321 351 319 326 354 17 79 28 63 10 9 16 77 54 29 39 35 27 25 17
Height
1545 1542 1539 1536 1533 1530 1527 1523 1520 1515 1511 1507 1503 1498 1494 1490 1485 1480 1476 1472 1468 1464 1462 1461 1460 1460 1459 1458 1447 1445 1445 1445 1445 1446 1449 1451 1452 1453 1449 1446 1449 1446 1441 1441 1442 1443 1443
1544 1542 1539 1536 1532 1528 1525 1522 1518 1514 1509 1504 1499 1495 1490 1486 1481 1475 1470 1466 1462 1458 1455 1454 1453 1453 1455 1451 1441 1441 1440 1440 1442 1444 1447 1449 1449 1449 1445 1443 1442 1437 1439 1438 1438 1439 1440
1543 1541 1538 1534 1531 1528 1524 1520 1515 1511 1506 1502 1498 1493 1487 1482 1477 1471 1466 1461 1455 1451 1448 1447 1447 1447 1448 1438 1436 1437 1437 1438 1439 1441 1444 1446 1447 1448 1444 1443 1440 1440 1440 1436 1433 1433 1434
1543 1540 1537 1534 1530 1527 1522 1518 1513 1508 1503 1499 1494 1489 1483 1478 1472 1465 1460 1455 1449 1445 1442 1441 1441 1442 1437 1430 1432 1432 1435 1436 1437 1439 1442 1443 1444 1445 1442 1440 1440 1440 1436 1434 1417 1419 1427
1542 1539 1536 1532 1529 1525 1520 1516 1511 1506 1502 1497 1492 1486 1479 1474 1468 1461 1455 1451 1445 1440 1438 1438 1439 1441 1433 1427 1427 1429 1432 1435 1436 1438 1439 1441 1443 1441 1441 1440 1435 1429 1424 1420 1417 1418 1421
1542 1539 1535 1531 1527 1522 1518 1514 1509 1505 1500 1496 1491 1485 1479 1474 1465 1458 1453 1447 1441 1439 1438 1437 1439 1442 1430 1428 1426 1427 1429 1433 1435 1437 1440 1440 1440 1436 1434 1429 1421 1413 1414 1412 1414 1408 1417
1541 1537 1533 1529 1525 1521 1517 1512 1507 1502 1498 1493 1488 1482 1476 1472 1465 1459 1451 1445 1445 1443 1439 1437 1432 1428 1428 1427 1426 1426 1428 1430 1432 1433 1431 1433 1432 1425 1418 1416 1412 1408 1404 1401 1398 1402 1414
1539 1535 1532 1528 1524 1519 1515 1510 1506 1501 1496 1492 1486 1480 1474 1469 1464 1460 1457 1455 1457 1456 1438 1426 1423 1423 1424 1426 1426 1425 1427 1430 1428 1425 1424 1425 1421 1415 1412 1410 1409 1411 1409 1405 1402 1400 1402
1538 1534 1530 1526 1522 1518 1514 1510 1505 1500 1495 1490 1485 1480 1473 1467 1464 1462 1459 1458 1456 1453 1446 1419 1418 1419 1420 1421 1420 1419 1423 1423 1421 1421 1416 1413 1405 1410 1409 1409 1410 1407 1406 1406 1404 1400 1403
1537 1533 1529 1525 1521 1517 1513 1509 1504 1499 1494 1489 1484 1480 1474 1466 1467 1462 1463 1459 1456 1453 1437 1411 1414 1416 1418 1419 1418 1417 1417 1421 1417 1415 1413 1407 1402 1403 1406 1406 1406 1404 1399 1400 1402 1410 1407
1534 1531 1527 1523 1519 1515 1511 1508 1503 1498 1493 1489 1484 1479 1474 1469 1467 1466 1464 1459 1456 1457 1431 1408 1411 1412 1412 1415 1414 1413 1414 1417 1412 1410 1412 1399 1399 1403 1402 1395 1399 1399 1400 1397 1403 1405 1405
1532 1529 1526 1522 1518 1514 1510 1506 1501 1497 1492 1487 1482 1478 1472 1468 1465 1464 1460 1457 1457 1449 1427 1404 1408 1409 1410 1407 1406 1408 1411 1413 1411 1409 1404 1399 1398 1402 1396 1394 1396 1397 1402 1402 1401 1401 1400
1531 1528 1524 1520 1516 1512 1508 1504 1499 1495 1490 1485 1480 1476 1471 1465 1464 1460 1458 1458 1450 1436 1404 1404 1407 1409 1408 1402 1401 1403 1403 1404 1401 1408 1397 1389 1388 1390 1394 1395 1395 1396 1395 1397 1399 1399 1386
1528 1525 1521 1517 1514 1510 1506 1502 1497 1493 1489 1484 1478 1473 1469 1462 1460 1459 1460 1457 1442 1409 1404 1416 1415 1412 1408 1397 1393 1392 1395 1391 1389 1389 1388 1384 1377 1374 1378 1380 1376 1384 1382 1377 1373 1366 1359
1527 1523 1519 1515 1511 1507 1504 1500 1495 1491 1487 1481 1476 1472 1468 1465 1462 1460 1462 1447 1425 1430 1433 1428 1416 1406 1398 1400 1407 1398 1391 1384 1377 1378 1385 1369 1363 1367 1369 1370 1374 1367 1373 1364 1368 1357 1364
1524 1520 1517 1513 1510 1506 1501 1497 1493 1489 1484 1479 1473 1471 1466 1464 1462 1461 1457 1440 1436 1440 1439 1432 1424 1411 1403 1398 1396 1394 1387 1378 1380 1378 1378 1369 1368 1357 1364 1374 1369 1363 1362 1372 1368 1368 1360
1521 1518 1514 1511 1508 1504 1500 1496 1491 1486 1481 1477 1474 1471 1466 1465 1464 1461 1457 1445 1438 1443 1443 1436 1427 1420 1412 1408 1403 1399 1391 1383 1384 1384 1386 1379 1373 1363 1368 1365 1360 1366 1366 1358 1352 1348 1343
1518 1515 1512 1510 1506 1501 1498 1495 1491 1486 1481 1476 1474 1473 1467 1466 1466 1458 1450 1446 1449 1444 1443 1437 1433 1429 1422 1418 1415 1405 1397 1392 1393 1398 1391 1384 1383 1363 1358 1358 1364 1366 1361 1353 1353 1352 1343
1516 1513 1510 1507 1504 1501 1498 1494 1490 1486 1482 1477 1475 1472 1466 1467 1461 1457 1451 1449 1448 1443 1438 1437 1436 1431 1426 1424 1422 1408 1409 1405 1403 1403 1397 1399 1381 1369 1360 1358 1358 1365 1367 1363 1365 1377 1368
1513 1510 1508 1504 1502 1498 1495 1493 1489 1486 1483 1480 1477 1471 1465 1465 1465 1460 1455 1452 1446 1441 1438 1436 1432 1428 1424 1421 1416 1417 1413 1405 1403 1403 1401 1401 1392 1388 1372 1362 1370 1371 1358 1353 1358 1366 1359
1512 1509 1506 1503 1500 1496 1493 1489 1488 1485 1482 1481 1479 1475 1474 1465 1460 1460 1457 1454 1446 1440 1435 1432 1432 1427 1424 1421 1414 1409 1405 1405 1403 1397 1395 1396 1388 1383 1383 1379 1377 1373 1374 1354 1357 1359 1359
1511 1507 1503 1500 1496 1493 1491 1488 1487 1484 1482 1481 1480 1478 1474 1469 1464 1457 1452 1448 1444 1438 1438 1428 1428 1425 1420 1419 1415 1412 1408 1407 1402 1396 1392 1393 1385 1381 1380 1372 1372 1376 1379 1376 1370 1363 1363
1510 1506 1502 1498 1495 1492 1490 1488 1485 1482 1479 1478 1477 1477 1475 1468 1461 1455 1448 1444 1440 1439 1428 1427 1426 1424 1420 1415 1413 1410 1407 1402 1401 1400 1396 1390 1386 1386 1379 1371 1374 1379 1381 1377 1385 1398 1397
1510 1506 1502 1498 1494 1491 1488 1486 1484 1481 1479 1478 1476 1475 1474 1464 1460 1452 1447 1444 1439 1436 1432 1425 1424 1422 1415 1413 1408 1402 1397 1393 1391 1387 1390 1385 1384 1385 1379 1376 1377 1401 1400 1396 1407 1419 1418
1510 1505 1502 1498 1495 1491 1488 1486 1483 1481 1479 1477 1474 1474 1471 1463 1459 1449 1445 1442 1438 1433 1427 1422 1419 1419 1415 1412 1406 1393 1381 1384 1376 1380 1381 1384 1385 1383 1378 1366 1377 1397 1414 1419 1416 1428 1432
1509 1504 1501 1497 1494 1490 1487 1484 1481 1477 1474 1473 1472 1470 1468 1465 1453 1452 1446 1441 1434 1430 1422 1419 1417 1415 1414 1411 1405 1395 1385 1379 1370 1379 1384 1385 1388 1385 1371 1375 1372 1428 1433 1430 1427 1423 1441
1507 1503 1499 1495 1491 1487 1484 1481 1477 1473 1471 1470 1468 1467 1463 1461 1452 1450 1446 1444 1440 1435 1429 1420 1420 1414 1413 1406 1398 1389 1381 1386 1378 1380 1381 1382 1384 1382 1372 1371 1425 1448 1438 1430 1411 1444 1446
1505 1501 1497 1492 1488 1483 1480 1477 1473 1470 1467 1466 1462 1461 1460 1456 1451 1448 1446 1444 1442 1440 1435 1427 1420 1413 1410 1404 1395 1385 1385 1384 1387 1416 1415 1416 1418 1410 1404 1377 1407 1450 1437 1437 1457 1454 1452
1503 1499 1494 1489 1486 1481 1477 1474 1471 1467 1464 1462 1458 1457 1455 1454 1450 1446 1444 1444 1443 1442 1440 1433 1430 1424 1416 1407 1402 1396 1387 1389 1392 1395 1433 1424 1448 1442 1452 1456 1465 1464 1461 1461 1459 1457 1455